Location: Newark
(27.9675°N, 86.8869°E)
Time: 00:12:52
(UTC+00:00)

Altair - Pass Details

Date: 31 October 2019
Orbit: 1502 x 1682 km, 47.2° (Epoch: 20 November)

Event Time Altitude Azimuth Distance (km) Brightness Sun altitude
Rises 23:21:00 0° 197° (SSW) 4,622 9.9 -14.2°
Reaches altitude 10° 23:24:24 10° 188° (S) 3,640 9.5 -13.5°
Maximum altitude 23:32:16 33° 128° (SE) 2,309 9.1 -11.8°
Drops below altitude 10° 23:40:14 10° 68° (ENE) 3,700 10.5 -10.1°
Sets 23:43:41 0° 59° (ENE) 4,707 10.9 -9.3°
